Starlink 32330

operational
NORAD ID: 61850 Int'l Des: 2024-202 Owner: SPXS Country: US Constellation: starlink
LEOCIRCULAR

About Starlink 32330

Description loading...

Live Position

Loading 3D Globe...

Upcoming Passes

Altitude History

Altitude vs Time

uPlot chart will show altitude changes over time

Two-Line Element Set

1 61850U 24202F 26036.07383516 .00000484 00000-0 27115-4 0 9996
2 61850 43.0038 61.8274 0001496 279.8580 80.2102 15.27575199 70356
Epoch: Feb 5, 2026 • Age: 8 hours

Current Status

Altitude 486.4 km
Velocity 7.63 km/s
Sub-Earth Point 39.84°N, 161.62°W
Launch Date Nov 7, 2024
Age 1.2 years
Type internet

Technical Details

Classification Payload
Mass 730.00 kg
Dry Mass 700.00 kg
Total Mass 730.00 kg
Length 0.30 m
Diameter 4.10 m
Span 29.00 m
Shape Box + pan
Manufacturer SPXS
Bus Type Starlink V2M
Phase Status In Orbit
Owner/State SPXS/US

Large Constellations

Loading constellations...